DW2989 Weather Reports


time (UTC)temp
C
wind
direction
speed
KPH
gust
KPH
rain 1hr
cm
rain 24hr
cm
rain mn
cm
humidity
%
barometer
mb
20260906220001 27 348 24.1 37.0 0.00 0.00 0.00 18 1002.9
20260906214610 27 360 27.4 43.5 0.00 0.00 0.00 19 1003.1
20260906213100 27 265 24.1 43.5 0.00 0.00 0.00 19 1003.0
20260906211604 28 240 19.3 37.0 0.00 0.00 0.00 18 1003.0
20260906210115 28 304 17.7 37.0 0.00 0.00 0.00 19 1003.2
20260906204612 28 240 24.1 35.4 0.00 0.00 0.00 19 1003.0
20260906203056 27 271 22.5 37.0 0.00 0.00 0.00 20 1003.2
20260906201556 27 271 16.1 33.8 0.00 0.00 0.00 20 1003.2
20260906200055 27 282 16.1 32.2 0.00 0.00 0.00 20 1003.5
20260906194557 27 225 16.1 38.6 0.00 0.00 0.00 19 1003.9
20260906193054 27 248 22.5 37.0 0.00 0.00 0.00 19 1004.2
20260906191605 27 301 19.3 41.8 0.00 0.00 0.00 19 1004.6
20260906190153 27 257 29.0 43.5 0.00 0.00 0.00 20 1005.0
20260906184554 27 360 22.5 43.5 0.00 0.00 0.00 21 1005.0
20260906183053 27 293 17.7 40.2 0.00 0.00 0.00 21 1005.2
20260906181551 26 225 19.3 38.6 0.00 0.00 0.00 20 1005.4
20260906180107 26 244 19.3 35.4 0.00 0.00 0.00 21 1006.0
20260906174558 26 360 14.5 35.4 0.00 0.00 0.00 21 1006.2
20260906173056 26 244 12.9 27.4 0.00 0.00 0.00 21 1006.5
20260906171549 25 285 19.3 32.2 0.00 0.00 0.00 21 1006.7
20260906170049 24 256 16.1 35.4 0.00 0.00 0.00 23 1006.9
20260906164548 23 227 20.9 35.4 0.00 0.00 0.00 25 1006.8
20260906163055 23 265 17.7 30.6 0.00 0.00 0.00 27 1006.9
20260906161547 22 360 12.9 29.0 0.00 0.00 0.00 30 1007.0
20260906160048 21 247 17.7 27.4 0.00 0.00 0.00 30 1007.1
20260906154551 21 269 17.7 32.2 0.00 0.00 0.00 33 1007.2
20260906153110 20 360 14.5 22.5 0.00 0.00 0.00 34 1007.3
20260906151555 20 228 16.1 24.1 0.00 0.00 0.00 35 1007.4
20260906150046 19 233 0.0 17.7 0.00 0.00 0.00 37 1007.6
20260906144550 18 235 9.7 16.1 0.00 0.00 0.00 38 1007.5
20260906143048 17 233 8.0 19.3 0.00 0.00 0.00 41 1007.4
20260906141546 16 225 6.4 16.1 0.00 0.00 0.00 43 1007.4
20260906140043 16 269 9.7 14.5 0.00 0.00 0.00 44 1007.3
20260906134603 16 238 3.2 14.5 0.00 0.00 0.00 42 1007.2
20260906133050 16 250 3.2 9.7 0.00 0.00 0.00 42 1007.2
20260906131540 15 234 1.6 8.0 0.00 0.00 0.00 42 1007.1
20260906130041 15 221 1.6 12.9 0.00 0.00 0.00 42 1007.1
20260906124538 15 151 0.0 14.5 0.00 0.00 0.00 41 1006.9
20260906123052 15 250 11.3 17.7 0.00 0.00 0.00 42 1006.8
20260906121542 13 101 9.7 16.1 0.00 0.00 0.00 46 1006.8
20260906120037 13 162 0.0 1.6 0.00 0.00 0.00 46 1006.8
20260906114537 13 162 0.0 3.2 0.00 0.00 0.00 44 1006.9
20260906113036 13 221 3.2 11.3 0.00 0.00 0.00 46 1006.9
20260906111535 11 154 1.6 8.0 0.00 0.00 0.00 51 1006.8
20260906110033 10 160 1.6 4.8 0.00 0.00 0.00 53 1006.8
20260906104534 10 160 0.0 9.7 0.00 0.00 0.00 52 1006.5
20260906103032 11 165 0.0 9.7 0.00 0.00 0.00 48 1006.5
20260906101532 10 220 1.6 8.0 0.00 0.00 0.00 53 1006.5
20260906100033 10 221 0.0 4.8 0.00 0.00 0.00 53 1006.4
20260906094528 10 222 0.0 6.4 0.00 0.00 0.00 52 1006.3
20260906093036 10 149 0.0 3.2 0.00 0.00 0.00 51 1006.2
20260906091523 11 148 0.0 9.7 0.00 0.00 0.00 49 1006.3
20260906090036 11 148 3.2 8.0 0.00 0.00 0.00 46 1006.1
20260906084518 12 242 0.0 6.4 0.00 0.00 0.00 45 1005.9
20260906083015 13 243 4.8 8.0 0.00 0.00 0.00 43 1005.8
20260906081517 13 246 3.2 12.9 0.00 0.00 0.00 42 1005.8
20260906080015 13 223 3.2 9.7 0.00 0.00 0.00 44 1005.9
20260906074513 13 260 0.0 0.0 0.00 0.00 0.00 42 1005.9
20260906073010 14 269 0.0 3.2 0.00 0.00 0.00 42 1005.9
20260906071507 14 276 4.8 11.3 0.00 0.00 0.00 40 1005.7
20260906070006 15 268 6.4 12.9 0.00 0.00 0.00 39 1005.6
20260906064505 15 240 0.0 3.2 0.00 0.00 0.00 39 1005.7
20260906063004 15 241 0.0 4.8 0.00 0.00 0.00 39 1005.5
20260906061604 16 94 0.0 1.6 0.00 0.00 0.00 37 1005.6
20260906060059 16 93 0.0 0.0 0.00 0.00 0.00 36 1005.5
20260906054558 16 93 0.0 3.2 0.00 0.00 0.00 36 1005.6
20260906053057 17 93 0.0 12.9 0.00 0.00 0.00 35 1005.7
20260906051603 16 65 1.6 6.4 0.00 0.00 0.00 36 1005.7
20260906050107 17 279 4.8 11.3 0.00 0.00 0.00 35 1005.7
20260906044554 17 271 9.7 17.7 0.00 0.00 0.00 33 1005.6
20260906043058 18 360 11.3 16.1 0.00 0.00 0.00 33 1005.6
20260906041548 18 265 11.3 17.7 0.00 0.00 0.00 32 1005.5
20260906040048 19 256 9.7 16.1 0.00 0.00 0.00 31 1005.5
20260906034606 20 248 14.5 19.3 0.00 0.00 0.00 29 1005.6
20260906033047 20 262 14.5 20.9 0.00 0.00 0.00 30 1005.5
20260906031550 19 254 6.4 14.5 0.00 0.00 0.00 30 1005.4
20260906030043 19 262 6.4 9.7 0.00 0.00 0.00 31 1005.4
20260906024538 19 248 1.6 11.3 0.00 0.00 0.00 30 1005.0
20260906023035 20 276 6.4 11.3 0.00 0.00 0.00 29 1004.8
20260906021531 21 274 9.7 12.9 0.00 0.00 0.00 29 1004.5
20260906020027 21 271 8.0 11.3 0.00 0.00 0.00 27 1004.3
20260906014528 23 275 6.4 11.3 0.00 0.00 0.00 24 1004.2
20260906013020 25 285 11.3 17.7 0.00 0.00 0.00 22 1004.1
20260906011515 26 271 14.5 24.1 0.00 0.00 0.00 20 1004.2
20260906010013 26 271 17.7 25.7 0.00 0.00 0.00 20 1004.1
20260906004508 27 360 12.9 27.4 0.00 0.00 0.00 21 1004.0
20260906003006 27 248 14.5 29.0 0.00 0.00 0.00 21 1003.9
20260906001504 27 360 17.7 33.8 0.00 0.00 0.00 21 1003.8
20260906000004 28 315 12.9 30.6 0.00 0.00 0.00 20 1003.9
20260905234500 28 360 22.5 30.6 0.00 0.00 0.00 19 1003.8
20260905233059 28 360 24.1 33.8 0.00 0.00 0.00 19 1003.9
20260905231604 29 281 17.7 29.0 0.00 0.00 0.00 19 1003.6
20260905224554 28 278 22.5 32.2 0.00 0.00 0.00 21 1003.8
20260905223056 28 285 25.7 41.8 0.00 0.00 0.00 21 1003.8
20260905221555 29 295 17.7 33.8 0.00 0.00 0.00 21 1003.9